Weather History for Appleton, MN

Change the Weather History Date:

Thursday, May 8, 2014

  Actual Average Record
Temperature  
Mean Temperature 50 °F -  
Max Temperature 55 °F 63 °F 73 °F (2004)
Min Temperature 46 °F 40 °F 37 °F (2008)
Degree Days  
Heating Degree Days 14    
Moisture  
Dew Point 48 °F    
Average Humidity 88    
Maximum Humidity 94    
Minimum Humidity 76    
Precipitation  
Precipitation 0.92 in - - ()
Sea Level Pressure  
Sea Level Pressure 29.66 in    
Wind  
Wind Speed 11 mph (North)    
Max Wind Speed 24 mph    
Max Gust Speed 45 mph    
Visibility 7 miles    
Events Rain , Thunderstorm    
Averages and records for this station are not official NWS values.
T = Trace of Precipitation, MM = Missing Value Source: NWS Daily Summary

Daily Weather History Graph

Daily Weather History Graph

Search for Another Location

Airport:

Trip Planner

Search our weather history database for the weather conditions in past years. The results will help you decide how hot, cold, wet, or windy it might be!

Date:

Astronomy

May. 08, 2014 Rise Set
Actual Time 6:02 AM CDT 8:38 PM CDT
Civil Twilight 5:29 AM CDT 9:12 PM CDT
Nautical Twilight 4:47 AM CDT 9:54 PM CDT
Astronomical Twilight 3:59 AM CDT 10:43 PM CDT
Moon 2:23 PM CDT (5/8) 2:52 AM CDT (5/8)
Length of Visible Light 15h 43m
Length of Day
14h 36m
Waxing Gibbous, 65% of the Moon is Illuminated
May 8
Waxing Gibbous
May 14
Full
May 21
Last Quarter
May 28
New
Jun 5
First Quarter

Hourly Weather History & Observations

Time (CDT) Temp. Windchill Dew Point Humidity Pressure Visibility Wind Dir Wind Speed Gust Speed Precip Events Conditions
12:13 AM 53.6 °F - 46.4 °F 77% 29.70 in 10.0 mi NNE 10.4 mph - N/A   Scattered Clouds
12:33 AM 53.6 °F - 46.4 °F 77% 29.69 in 10.0 mi North 9.2 mph - N/A   Scattered Clouds
12:53 AM 53.6 °F - 46.4 °F 77% 29.67 in 10.0 mi North 12.7 mph - N/A   Clear
1:13 AM 51.8 °F - 44.6 °F 76% 29.69 in 10.0 mi NE 6.9 mph - N/A   Clear
1:35 AM 53.6 °F - 46.4 °F 77% 29.72 in 10.0 mi Calm Calm - N/A Thunderstorm Scattered Clouds
1:54 AM 53.6 °F - 46.4 °F 77% 29.67 in 10.0 mi North 10.4 mph - N/A   Scattered Clouds
2:14 AM 53.6 °F - 46.4 °F 77% 29.73 in 10.0 mi West 11.5 mph - N/A   Scattered Clouds
2:34 AM 53.6 °F - 46.4 °F 77% 29.81 in 2.5 mi West 24.2 mph 44.9 mph 0.16 in Rain , Thunderstorm Heavy Thunderstorms and Rain
2:53 AM 51.8 °F - 46.4 °F 82% 29.78 in 10.0 mi WNW 18.4 mph - 0.24 in Rain , Thunderstorm Light Thunderstorms and Rain
3:14 AM 51.8 °F - 46.4 °F 82% 29.72 in 10.0 mi NNW 23.0 mph 32.2 mph 0.01 in Rain , Thunderstorm Light Thunderstorms and Rain
3:34 AM 50.0 °F - 46.4 °F 87% 29.67 in 10.0 mi North 21.9 mph - 0.01 in   Clear
3:55 AM 48.2 °F - 46.4 °F 93% 29.65 in 10.0 mi NNE 16.1 mph 25.3 mph 0.01 in   Clear
4:13 AM 50.0 °F - 46.4 °F 87% 29.64 in 10.0 mi ENE 13.8 mph - N/A   Clear
4:34 AM 48.2 °F - 46.4 °F 93% 29.68 in 7.0 mi North 5.8 mph - N/A   Clear
4:55 AM 48.2 °F - 46.4 °F 93% 29.72 in 7.0 mi NW 6.9 mph - N/A   Scattered Clouds
5:13 AM 48.2 °F - 46.4 °F 93% 29.73 in 7.0 mi NW 5.8 mph - N/A   Overcast
5:34 AM 48.2 °F - 46.4 °F 93% 29.72 in 7.0 mi NNW 6.9 mph - N/A   Overcast
5:54 AM 48.2 °F - 46.4 °F 93% 29.72 in 7.0 mi NW 8.1 mph - N/A   Mostly Cloudy
6:14 AM 48.2 °F - 46.4 °F 93% 29.74 in 7.0 mi NW 8.1 mph - N/A   Mostly Cloudy
6:34 AM 48.2 °F - 46.4 °F 93% 29.74 in 5.0 mi NNW 13.8 mph - N/A   Overcast
6:54 AM 48.2 °F - 46.4 °F 93% 29.76 in 4.0 mi NW 13.8 mph - N/A   Overcast
7:15 AM 48.2 °F - 46.4 °F 93% 29.78 in 2.0 mi NNW 9.2 mph - N/A   Overcast
7:33 AM 48.2 °F - 44.6 °F 87% 29.77 in 2.5 mi NNW 16.1 mph - N/A   Overcast
7:53 AM 48.2 °F - 44.6 °F 87% 29.77 in 3.0 mi NNW 10.4 mph - N/A   Overcast
8:13 AM 46.4 °F 42.4 °F 44.6 °F 93% 29.78 in 2.5 mi NNW 8.1 mph - 0.02 in Rain Rain
8:34 AM 48.2 °F - 44.6 °F 87% 29.68 in 2.5 mi North 18.4 mph - 0.05 in Rain Light Rain
8:55 AM 48.2 °F - 46.4 °F 93% 29.66 in 4.0 mi NE 16.1 mph - 0.05 in   Overcast
9:14 AM 48.2 °F - 46.4 °F 93% 29.66 in 5.0 mi North 11.5 mph - N/A   Overcast
9:33 AM 51.8 °F - 48.2 °F 88% 29.69 in 7.0 mi NNE 4.6 mph - N/A   Overcast
10:14 AM 51.8 °F - 48.2 °F 88% 29.71 in 10.0 mi NNE 5.8 mph - N/A   Overcast
10:34 AM 51.8 °F - 48.2 °F 88% 29.71 in 10.0 mi NE 3.5 mph - N/A   Overcast
10:55 AM 53.6 °F - 50.0 °F 88% 29.72 in 10.0 mi Calm Calm - N/A   Overcast
11:14 AM 53.6 °F - 50.0 °F 88% 29.70 in 10.0 mi North 4.6 mph - N/A   Overcast
11:35 AM 53.6 °F - 48.2 °F 82% 29.71 in 10.0 mi ENE 6.9 mph - N/A   Overcast
11:54 AM 53.6 °F - 48.2 °F 82% 29.72 in 10.0 mi East 5.8 mph - N/A Thunderstorm Overcast
12:14 PM 53.6 °F - 50.0 °F 88% 29.68 in 10.0 mi NE 9.2 mph - N/A   Light Drizzle
12:34 PM 55.4 °F - 50.0 °F 82% 29.68 in 10.0 mi NNE 8.1 mph - N/A   Overcast
1:14 PM 55.4 °F - 48.2 °F 77% 29.65 in 10.0 mi North 15.0 mph - N/A   Overcast
1:34 PM 53.6 °F - 50.0 °F 88% 29.67 in 2.0 mi North 10.4 mph - 0.10 in Rain , Thunderstorm Heavy Thunderstorms and Rain
1:54 PM 53.6 °F - 50.0 °F 88% 29.67 in 2.0 mi NNW 13.8 mph - 0.37 in Rain , Thunderstorm Heavy Thunderstorms and Rain
2:14 PM 53.6 °F - 50.0 °F 88% 29.68 in 3.0 mi NNW 13.8 mph - 0.06 in Rain Heavy Rain
2:35 PM 53.6 °F - 50.0 °F 88% 29.63 in 2.0 mi NE 18.4 mph - 0.22 in Rain , Thunderstorm Heavy Thunderstorms and Rain
2:53 PM 53.6 °F - 50.0 °F 88% 29.61 in 10.0 mi NE 15.0 mph 24.2 mph 0.22 in   Mostly Cloudy
3:14 PM 53.6 °F - 51.8 °F 94% 29.60 in 10.0 mi NE 15.0 mph - N/A   Overcast
3:33 PM 53.6 °F - 51.8 °F 94% 29.61 in 10.0 mi NNE 12.7 mph - N/A   Overcast
4:13 PM 53.6 °F - 51.8 °F 94% 29.62 in 7.0 mi NNE 6.9 mph - N/A Rain Rain
4:34 PM 53.6 °F - 51.8 °F 94% 29.61 in 3.0 mi NNE 8.1 mph - N/A   Light Drizzle
4:53 PM 53.6 °F - 51.8 °F 94% 29.60 in 3.0 mi NNE 8.1 mph - N/A   Light Drizzle
5:14 PM 53.6 °F - 51.8 °F 94% 29.60 in 5.0 mi North 8.1 mph - N/A   Light Drizzle
5:34 PM 53.6 °F - 51.8 °F 94% 29.60 in 7.0 mi NNE 12.7 mph - N/A   Overcast
5:53 PM 53.6 °F - 51.8 °F 94% 29.59 in 10.0 mi North 10.4 mph - N/A   Overcast
6:14 PM 53.6 °F - 51.8 °F 94% 29.58 in 10.0 mi North 10.4 mph - N/A   Overcast
6:33 PM 53.6 °F - 51.8 °F 94% 29.58 in 10.0 mi NNE 9.2 mph - N/A   Overcast
7:14 PM 53.6 °F - 51.8 °F 94% 29.55 in 5.0 mi North 10.4 mph - 0.01 in Rain Rain
7:35 PM 53.6 °F - 51.8 °F 94% 29.56 in 7.0 mi NNW 8.1 mph - 0.02 in Rain Light Rain
7:55 PM 53.6 °F - 51.8 °F 94% 29.57 in 10.0 mi North 4.6 mph - 0.02 in   Overcast
8:14 PM 53.6 °F - 51.8 °F 94% 29.57 in 10.0 mi North 6.9 mph - N/A Rain Light Rain
8:34 PM 53.6 °F - 50.0 °F 88% 29.58 in 10.0 mi WNW 6.9 mph - N/A   Overcast
8:54 PM 53.6 °F - 50.0 °F 88% 29.56 in 10.0 mi NNW 8.1 mph - N/A   Overcast
9:14 PM 53.6 °F - 50.0 °F 88% 29.56 in 10.0 mi NW 9.2 mph - N/A   Overcast
9:33 PM 53.6 °F - 50.0 °F 88% 29.57 in 10.0 mi NW 13.8 mph - N/A   Overcast
9:54 PM 51.8 °F - 48.2 °F 88% 29.58 in 10.0 mi NNW 13.8 mph - N/A   Overcast
10:13 PM 51.8 °F - 48.2 °F 88% 29.58 in 5.0 mi NW 18.4 mph - N/A   Overcast
10:33 PM 50.0 °F - 46.4 °F 87% 29.57 in 3.0 mi NNW 17.3 mph 23.0 mph N/A   Light Drizzle
10:54 PM 48.2 °F - 46.4 °F 93% 29.58 in 3.0 mi NW 19.6 mph 25.3 mph N/A Rain Light Rain
11:13 PM 48.2 °F - 46.4 °F 93% 29.58 in 3.0 mi NW 19.6 mph 26.5 mph N/A Rain Light Rain
11:33 PM 48.2 °F - 46.4 °F 93% 29.58 in 5.0 mi NNW 17.3 mph - 0.01 in   Light Drizzle
11:54 PM 48.2 °F - 46.4 °F 93% 29.58 in 7.0 mi NNW 19.6 mph 23.0 mph 0.01 in Rain Light Rain